Weather History for Plymouth, NH

Change the Weather History Date:

Saturday, January 18, 2014

  Actual Average (KLCI) Record (KLCI)
Temperature  
Mean Temperature 26 °F -  
Max Temperature 34 °F 29 °F 55 °F (2006)
Min Temperature 18 °F 9 °F -11 °F (2003)
Degree Days  
Heating Degree Days 39    
Moisture  
Dew Point 24 °F    
Average Humidity 94    
Maximum Humidity 100    
Minimum Humidity 77    
Precipitation  
Precipitation 0.00 in - - ()
Sea Level Pressure  
Sea Level Pressure 29.76 in    
Wind  
Wind Speed 0 mph (SSE)    
Max Wind Speed 5 mph    
Max Gust Speed -    
Visibility 5 miles    
Events Fog , Snow    
Averages and records for this station are not official NWS values.
T = Trace of Precipitation, MM = Missing Value Source: NWS Daily Summary

Daily Weather History Graph

Daily Weather History Graph

Search for Another Location

Airport:

Trip Planner

Search our weather history database for the weather conditions in past years. The results will help you decide how hot, cold, wet, or windy it might be!

Date:

Astronomy

Jan. 18, 2014 Rise Set
Actual Time 7:16 AM EST 4:39 PM EST
Civil Twilight 6:44 AM EST 5:10 PM EST
Nautical Twilight 6:09 AM EST 5:46 PM EST
Astronomical Twilight 5:34 AM EST 6:20 PM EST
Moon 7:25 PM EST (1/18) 8:08 AM EST (1/18)
Length of Visible Light 10h 26m
Length of Day
9h 23m
Waning Gibbous, 94% of the Moon is Illuminated
Jan 18
Waning Gibbous
Jan 24
Last Quarter
Jan 30
New
Feb 6
First Quarter
Feb 14
Full

Hourly Weather History & Observations

Time (EST) Temp. Windchill Dew Point Humidity Pressure Visibility Wind Dir Wind Speed Gust Speed Precip Events Conditions
12:15 AM 21.7 °F - 20.8 °F 96% 29.91 in 4.0 mi Calm Calm - N/A   Clear
12:35 AM 21.9 °F - 21.0 °F 96% 29.90 in 2.0 mi Calm Calm - N/A   Clear
12:55 AM 21.0 °F - 19.9 °F 96% 29.90 in 7.0 mi Calm Calm - N/A   Clear
1:15 AM 21.2 °F - 20.3 °F 96% 29.90 in 5.0 mi Calm Calm - N/A   Scattered Clouds
1:35 AM 20.8 °F - 19.8 °F 96% 29.89 in 3.0 mi Calm Calm - N/A   Scattered Clouds
1:55 AM 20.1 °F - 19.0 °F 96% 29.89 in 5.0 mi Calm Calm - N/A   Scattered Clouds
2:15 AM 20.3 °F - 19.4 °F 96% 29.90 in 3.0 mi Calm Calm - N/A   Clear
2:35 AM 20.1 °F - 19.0 °F 96% 29.89 in 3.0 mi Calm Calm - N/A   Clear
2:55 AM 19.4 °F - 18.5 °F 96% 29.89 in 7.0 mi Calm Calm - N/A   Clear
3:15 AM 19.4 °F - 18.3 °F 96% 29.89 in 7.0 mi Calm Calm - N/A   Clear
3:35 AM 19.4 °F - 18.3 °F 96% 29.89 in 5.0 mi Calm Calm - N/A   Clear
3:55 AM 19.0 °F - 17.8 °F 95% 29.89 in 5.0 mi Calm Calm - N/A   Mostly Cloudy
4:15 AM 19.0 °F - 17.8 °F 95% 29.89 in 0.5 mi Calm Calm - N/A Fog Light Freezing Fog
4:35 AM 19.0 °F - 17.8 °F 95% 29.88 in 0.2 mi Calm Calm - N/A Fog Light Freezing Fog
4:55 AM 18.5 °F - 17.4 °F 96% 29.88 in 0.8 mi Calm Calm - N/A   Overcast
5:15 AM 18.0 °F - 16.7 °F 95% 29.87 in 3.0 mi Calm Calm - N/A   Scattered Clouds
5:35 AM 18.3 °F - 17.1 °F 95% 29.85 in 2.0 mi Calm Calm - N/A   Clear
5:55 AM 18.5 °F - 17.6 °F 96% 29.86 in 4.0 mi Calm Calm - N/A   Clear
6:15 AM 19.0 °F - 17.8 °F 95% 29.86 in 5.0 mi Calm Calm - N/A   Clear
6:35 AM 19.0 °F - 17.8 °F 95% 29.86 in 7.0 mi Calm Calm - N/A   Scattered Clouds
6:55 AM 18.5 °F - 17.4 °F 96% 29.86 in 5.0 mi Calm Calm - N/A   Scattered Clouds
7:15 AM 18.9 °F - 17.8 °F 96% 29.84 in 5.0 mi Calm Calm - N/A   Scattered Clouds
7:35 AM 18.7 °F - 17.2 °F 94% 29.84 in 5.0 mi Calm Calm - N/A   Mostly Cloudy
7:55 AM 19.0 °F - 18.0 °F 96% 29.83 in 5.0 mi Calm Calm - N/A   Scattered Clouds
8:15 AM 19.4 °F - 18.5 °F 96% 29.82 in 5.0 mi Calm Calm - N/A   Clear
8:35 AM 19.6 °F - 18.5 °F 96% 29.81 in 4.0 mi Calm Calm - N/A   Scattered Clouds
8:55 AM 21.6 °F - 20.5 °F 96% 29.81 in 5.0 mi Calm Calm - N/A   Scattered Clouds
9:15 AM 23.0 °F - 21.9 °F 96% 29.80 in 7.0 mi Calm Calm - N/A   Clear
9:35 AM 24.1 °F - 23.4 °F 97% 29.81 in 7.0 mi Calm Calm - N/A   Clear
9:55 AM 25.3 °F - 24.6 °F 97% 29.81 in 7.0 mi Calm Calm - N/A   Scattered Clouds
10:15 AM 25.7 °F - 25.3 °F 99% 29.82 in 10.0 mi Calm Calm - N/A   Scattered Clouds
10:35 AM 25.7 °F - 25.3 °F 99% 29.81 in 10.0 mi Calm Calm - N/A   Overcast
10:55 AM 26.6 °F - 26.1 °F 98% 29.80 in 10.0 mi Calm Calm - N/A   Overcast
11:15 AM 27.1 °F - 26.6 °F 98% 29.78 in 10.0 mi Calm Calm - N/A   Overcast
11:35 AM 27.5 °F - 27.1 °F 99% 29.76 in 10.0 mi Calm Calm - N/A   Scattered Clouds
11:55 AM 28.4 °F - 27.9 °F 98% 29.74 in 10.0 mi Calm Calm - N/A   Mostly Cloudy
12:15 PM 29.5 °F - 28.0 °F 94% 29.71 in 10.0 mi Calm Calm - N/A   Overcast
12:35 PM 30.9 °F - 27.3 °F 86% 29.70 in 10.0 mi Calm Calm - N/A   Overcast
12:55 PM 31.6 °F - 28.4 °F 88% 29.69 in 10.0 mi Calm Calm - N/A   Overcast
1:15 PM 32.0 °F - 28.4 °F 87% 29.68 in 2.5 mi Calm Calm - N/A Snow Light Snow
1:35 PM 32.2 °F - 29.5 °F 90% 29.67 in 1.8 mi Calm Calm - N/A Snow Light Snow
1:55 PM 32.9 °F - 30.0 °F 89% 29.66 in 4.0 mi Calm Calm - N/A Snow Light Snow
2:15 PM 33.3 °F - 29.8 °F 87% 29.66 in 10.0 mi Calm Calm - N/A Snow Light Snow
2:35 PM 33.8 °F - 29.5 °F 84% 29.66 in 10.0 mi Calm Calm - N/A   Overcast
2:55 PM 34.0 °F - 29.1 °F 82% 29.66 in 10.0 mi Calm Calm - N/A   Overcast
3:15 PM 34.2 °F - 28.4 °F 79% 29.65 in 10.0 mi Calm Calm - N/A   Overcast
3:35 PM 33.8 °F 29.6 °F 27.1 °F 77% 29.66 in 10.0 mi SSE 4.6 mph - N/A   Overcast
3:55 PM 33.3 °F - 27.0 °F 78% 29.67 in 10.0 mi Calm Calm - N/A   Overcast
4:15 PM 33.1 °F - 26.6 °F 77% 29.66 in 10.0 mi Calm Calm - N/A   Overcast
4:35 PM 32.5 °F - 26.8 °F 79% 29.67 in 10.0 mi Calm Calm - N/A   Overcast
4:55 PM 32.2 °F - 27.1 °F 82% 29.67 in 10.0 mi Calm Calm - N/A   Overcast
5:15 PM 32.0 °F - 27.5 °F 83% 29.67 in 10.0 mi Calm Calm - N/A Snow Light Snow
5:35 PM 31.8 °F - 28.4 °F 87% 29.67 in 5.0 mi Calm Calm - N/A Snow Light Snow
5:55 PM 31.6 °F - 28.8 °F 89% 29.67 in 7.0 mi Calm Calm - N/A Snow Light Snow
6:15 PM 31.5 °F - 29.1 °F 91% 29.68 in 5.0 mi Calm Calm - N/A Snow Light Snow
6:35 PM 31.1 °F - 29.3 °F 93% 29.68 in 4.0 mi Calm Calm - N/A Snow Light Snow
6:55 PM 31.1 °F - 29.3 °F 93% 29.68 in 3.0 mi Calm Calm - N/A Snow Light Snow
7:15 PM 30.9 °F - 29.7 °F 95% 29.68 in 3.0 mi Calm Calm - N/A Snow Light Snow
7:35 PM 30.7 °F - 29.8 °F 96% 29.68 in 2.0 mi Calm Calm - N/A Snow Light Snow
7:55 PM 30.7 °F - 29.8 °F 96% 29.67 in 2.5 mi Calm Calm - N/A Snow Light Snow
8:15 PM 30.6 °F - 29.8 °F 97% 29.67 in 1.8 mi Calm Calm - N/A Snow Light Snow
8:35 PM 30.2 °F - 29.7 °F 98% 29.67 in 2.0 mi Calm Calm - N/A Snow Light Snow
8:55 PM 30.0 °F - 29.7 °F 99% 29.67 in 2.0 mi Calm Calm - N/A Snow Light Snow
9:15 PM 29.8 °F - 29.5 °F 99% 29.67 in 2.5 mi Calm Calm - N/A Snow Light Snow
9:35 PM 29.7 °F - 29.3 °F 99% 29.67 in 3.0 mi Calm Calm - N/A Snow Light Snow
9:55 PM 29.8 °F - 29.5 °F 99% 29.67 in 3.0 mi Calm Calm - N/A   Overcast
10:15 PM 29.3 °F - 29.3 °F 100% 29.67 in 3.0 mi Calm Calm - N/A Snow Light Snow
10:35 PM 29.1 °F - 28.9 °F 99% 29.67 in 1.8 mi Calm Calm - N/A   Overcast
10:55 PM 28.9 °F - 28.8 °F 99% 29.67 in 1.5 mi Calm Calm - N/A Snow Light Snow
11:15 PM 28.4 °F - 28.4 °F 100% 29.67 in 0.8 mi Calm Calm - N/A   Overcast
11:35 PM 28.6 °F - 28.4 °F 99% 29.67 in 0.8 mi Calm Calm - N/A   Overcast
11:55 PM 28.4 °F - 28.4 °F 100% 29.67 in 2.0 mi Calm Calm - N/A   Overcast